CST,Max TemperatureF,Mean TemperatureF,Min TemperatureF,Max Dew PointF,MeanDew PointF,Min DewpointF,Max Humidity, Mean Humidity, Min Humidity, Max Sea Level PressureIn, Mean Sea Level PressureIn, Min Sea Level PressureIn, Max VisibilityMiles, Mean VisibilityMiles, Min VisibilityMiles, Max Wind SpeedMPH, Mean Wind SpeedMPH, Max Gust SpeedMPH,PrecipitationIn, CloudCover, Events, WindDirDegrees
2013-11-1,55,46,38,39,35,31,81,68,41,30.07,29.85,29.62,10,10,10,29,13,37,0.02,5,Rain,302
2013-11-2,60,45,30,31,25,16,85,54,19,30.16,30.07,29.92,10,10,10,14,7,,0.00,0,,237
2013-11-3,59,50,39,34,30,24,76,51,34,29.91,29.70,29.57,10,10,10,28,16,36,0.00,0,,173
2013-11-4,51,43,35,35,29,24,87,64,35,30.14,29.96,29.71,10,10,10,20,8,26,0.00,2,,320
2013-11-5,37,34,29,33,29,26,94,83,66,30.15,30.10,30.03,10,6,1,16,7,21,0.04,8,Rain-Snow,32
2013-11-6,34,28,22,30,26,19,92,89,80,30.24,30.18,30.14,10,8,0,13,6,,0.14,5,Fog,243
2013-11-7,48,38,29,29,26,19,85,67,32,30.40,30.29,30.12,10,10,10,15,9,20,0.01,0,,257
2013-11-8,58,47,36,38,32,28,77,62,38,30.11,29.83,29.66,10,10,10,23,13,32,0.00,1,,215
2013-11-9,55,46,37,32,29,25,70,55,39,30.35,30.15,29.93,10,10,10,21,11,26,0.00,2,,308
2013-11-10,54,42,30,37,30,24,86,67,37,30.36,30.23,30.09,10,10,10,23,6,31,0.00,1,,192
2013-11-11,39,24,10,34,16,7,87,71,47,30.76,30.48,30.12,10,10,10,22,13,30,0.00,4,,359
2013-11-12,42,25,8,24,15,4,85,68,40,30.77,30.62,30.36,10,10,10,17,6,23,0.00,0,,205
2013-11-13,65,47,29,31,28,24,82,58,24,30.35,30.08,29.91,10,10,10,18,10,23,0.00,0,,211
2013-11-14,58,45,32,43,33,27,88,65,33,29.98,29.91,29.85,10,10,10,15,6,20,0.01,2,Rain,288
2013-11-15,59,46,33,37,32,26,89,64,29,29.85,29.67,29.48,10,10,10,22,8,28,0.00,0,,171
2013-11-16,60,48,36,36,26,10,90,54,14,29.47,29.34,29.27,10,10,7,22,9,31,0.00,2,,229
2013-11-17,52,40,28,35,29,22,88,69,45,30.04,29.68,29.38,10,10,10,25,7,33,0.00,3,,303
2013-11-18,55,40,25,24,21,17,80,55,22,30.18,30.09,30.03,10,10,10,10,6,,0.00,0,,160
2013-11-19,59,46,32,33,25,20,67,45,25,30.03,29.82,29.69,10,10,10,26,13,34,0.00,0,,181
2013-11-20,54,42,30,33,30,22,77,60,39,30.10,29.79,29.69,10,10,10,26,10,36,0.00,2,,339
2013-11-21,30,22,12,22,12,4,83,73,65,30.64,30.40,30.11,10,7,1,26,21,36,0.00,7,Snow,338
2013-11-22,32,16,-1,13,5,-6,81,64,34,30.67,30.59,30.51,10,10,10,14,8,,0.01,0,,267
2013-11-23,19,11,3,9,3,-1,85,68,42,30.83,30.72,30.57,10,10,10,12,4,,0.00,1,,152
2013-11-24,42,28,13,28,19,6,81,69,52,30.56,30.24,30.01,10,10,10,25,13,33,0.00,0,,195
2013-11-25,42,34,27,27,24,21,84,69,47,30.23,30.12,30.00,10,10,10,18,11,24,0.00,1,,298
2013-11-26,28,20,12,21,13,6,82,66,40,30.44,30.36,30.23,10,10,10,23,11,30,0.00,2,,331
2013-11-27,46,28,9,25,15,4,83,61,32,30.40,30.11,29.90,10,10,10,23,8,30,0.00,0,,211
2013-11-28,29,25,20,24,19,16,83,73,64,30.38,30.31,30.11,10,10,10,17,9,24,0.00,6,,352
2013-11-29,42,31,20,26,21,16,84,72,52,30.36,30.17,30.05,10,10,10,23,12,28,0.00,0,,187
2013-11-30,54,42,30,28,26,23,80,62,31,30.16,30.09,30.03,10,10,10,8,5,,0.00,0,,329